Tracking 19794 objects as of 21-Jul-2019
HD Live streaming from Space Station
objects crossing your sky now

NOAA 16 DEB

Track NOAA 16 DEB now!
10-day predictions


NORAD ID: 41421
Int'l Code: 2000-055LA
Perigee: 784.1 km
Apogee: 859.3 km
Inclination: 98.9 °
Period: 101.2 minutes
Semi major axis: 7192 km
RCS: Unknown
Launch date: September 21, 2000
Source: United States (US)
Launch site: AIR FORCE WESTERN TEST RANGE (AFWTR)

Note: This is SATELLITE DEBRIS
aabbcc
Your satellite tracking list
Your tracking list is empty




NASA's NSSDC Master Catalog

Two Line Element Set (TLE):
1 41421U 00055LA  19201.51142364  .00001058  00000-0  48155-3 0  9991
2 41421  98.9016 301.5593 0052247 270.2411  89.2780 14.23198695176567
Source of the keplerian elements: AFSPC